Temperature
7 8 8 9 9 9 9 9 10 10 10 10 10 10 10 10 10 10 9 9 9 8 8 9 9 9 10 10 10 10 11 11 11 11 11 11 11 12 12 12 13 12 13 13
8 8 8 8 8 8 9 9 9 10 10 10 10 10 10 10 10 9 9 9 8 8 8 8 8 9 9 9 10 10 10 10 11 11 11 11 11 11 11 12 12 12 12 12
8 8 8 8 8 8 8 9 9 9 9 9 9 10 10 10 9 9 9 8 8 8 7 8 8 8 8 9 9 9 9 10 10 10 10 10 10 11 11 11 11 11 11 11
8 8 8 8 8 9 9 9 9 9 9 9 9 10 10 10 10 9 9 8 8 8 7 7 7 8 8 8 9 9 9 9 10 10 10 10 10 10 10 10 11 11 11 11
8 8 8 8 8 8 9 9 8 8 8 9 9 9 10 10 9 9 9 8 7 7 7 7 7 7 7 8 8 8 9 9 9 9 10 9 10 10 10 10 10 10 10 11
8 8 8 8 8 8 8 8 8 8 9 9 9 9 10 10 9 9 9 8 7 6 6 6 6 7 7 7 8 8 8 9 9 9 9 9 9 9 9 9 9 10 10 10
8 8 8 8 8 8 8 8 9 9 10 10 9 9 10 10 9 8 8 7 6 6 6 6 6 6 6 7 7 7 8 8 8 8 9 9 9 9 9 9 9 9 9 9
8 8 8 8 8 8 8 8 9 10 11 11 9 10 10 9 8 7 7 6 6 6 5 5 5 6 6 6 7 7 7 7 8 8 8 8 8 8 8 9 9 9 9 9
8 8 8 8 8 8 8 8 8 9 9 10 11 10 10 9 8 7 7 6 6 5 5 5 5 5 6 6 6 6 6 7 7 7 7 8 8 8 8 8 8 8 8 8
8 7 8 8 8 8 8 8 8 8 10 11 11 11 11 9 8 8 7 6 6 5 5 5 5 5 5 5 6 6 6 7 7 7 7 7 8 8 8 8 8 8 8 8
7 7 8 8 8 8 8 8 8 8 9 10 11 12 10 9 9 8 7 6 6 5 5 5 5 5 5 5 5 5 6 6 6 7 7 7 7 7 7 7 7 7 7 7
7 8 8 8 8 7 8 8 8 8 8 9 10 11 9 9 8 8 7 6 5 5 4 4 5 5 5 5 5 5 5 6 6 6 6 6 7 6 7 7 7 7 7 7
7 8 8 9 8 8 7 8 8 7 8 8 10 11 9 8 8 7 7 6 5 5 4 4 4 4 4 5 5 5 5 5 6 6 6 6 6 6 6 6 6 6 6 6
7 8 8 9 9 8 8 8 7 7 8 9 10 10 10 9 8 8 7 6 5 4 4 4 4 4 4 4 4 5 5 5 5 5 5 5 5 5 5 6 6 6 6 6
7 7 7 8 8 7 7 7 7 7 8 8 10 9 10 9 8 7 6 6 5 4 4 4 4 4 4 4 4 5 5 5 5 5 5 5 5 5 5 5 5 5 5 5
7 7 7 7 7 7 7 7 7 7 8 8 8 9 10 9 7 7 6 5 5 5 4 4 4 4 4 4 5 5 5 5 5 5 5 5 5 5 5 5 5 5 5 5
6 7 7 8 7 7 8 8 8 7 7 8 8 9 9 8 7 7 6 6 5 5 5 4 4 5 5 4 4 4 5 4 4 4 5 4 4 4 4 4 4 4 4 4
6 6 6 7 7 8 10 7 7 7 7 7 8 8 8 8 7 6 6 6 5 5 5 5 5 5 5 4 4 4 4 4 4 4 4 4 4 4 4 4 4 4 4 4
5 6 6 6 8 9 9 7 7 7 8 8 7 7 7 6 6 6 6 6 6 5 5 5 5 5 4 4 4 4 4 4 4 4 4 4 4 4 4 4 4 3 3 4
4 5 6 6 7 9 10 7 6 7 9 8 7 7 6 5 8 9 6 6 6 5 5 5 5 4 4 4 4 4 4 4 4 4 4 4 3 3 3 3 3 3 3 3
5 5 5 6 7 9 9 6 6 8 10 8 6 6 5 6 8 7 6 6 6 6 5 5 5 4 4 4 4 4 4 4 3 3 3 3 3 3 3 3 3 3 2 2
6 6 6 6 6 8 7 6 7 9 7 6 6 6 5 6 6 6 6 6 6 5 5 5 4 4 4 4 4 4 3 3 3 3 3 3 3 3 3 3 3 2 2 2
6 7 7 7 9 8 6 7 7 7 6 6 6 6 6 5 6 6 6 6 5 5 5 5 4 4 4 4 4 3 3 3 3 3 3 3 3 2 2 2 2 2 2 1
5 4 5 5 7 7 6 6 7 7 7 7 6 6 6 6 6 6 6 5 5 5 5 4 4 4 4 4 3 3 3 3 3 3 3 2 2 2 2 2 1 1 1 1
6 4 4 5 7 6 6 7 7 7 7 7 7 6 6 6 6 6 6 5 5 5 5 4 4 3 3 3 3 3 3 2 2 2 2 2 2 2 1 1 1 1 1 0
5 5 6 8 8 8 8 8 7 7 7 7 6 6 6 6 5 5 5 5 5 5 4 4 4 3 3 3 3 2 2 2 2 2 2 1 1 1 1 1 1 1 0 0
Wind_Speed
2 2 4 5 5 3 3 4 5 5 3 4 8 10 9 6 5 5 4 4 3 4 4 4 4 3 3 2 2 3 3 3 3 4 4 4 4 3 3 3 3 4 4 6
3 2 3 3 4 4 4 5 5 4 3 5 7 10 8 6 5 4 4 4 3 4 4 3 4 3 3 2 2 2 2 2 2 3 3 3 3 3 2 2 2 3 3 4
2 0 2 3 4 5 6 7 6 5 5 4 6 7 5 4 4 3 3 3 3 2 3 3 3 3 3 3 2 1 1 1 2 3 3 2 2 2 2 2 2 2 3 4
1 1 2 3 3 4 4 4 6 6 5 2 3 4 4 4 3 2 2 2 2 2 2 2 3 3 3 3 2 2 1 1 1 2 3 4 4 3 3 3 2 3 3 4
0 0 1 2 3 4 3 3 5 5 4 4 4 4 3 3 3 2 2 2 2 2 2 2 3 3 3 4 3 3 2 2 1 2 2 3 3 3 2 2 2 2 2 2
1 1 2 2 3 4 3 2 2 3 3 3 3 4 3 2 3 2 2 3 3 3 2 2 3 3 4 4 4 3 3 3 2 2 2 3 3 3 3 2 2 2 1 2
1 1 1 2 2 2 2 2 2 2 3 2 0 4 3 2 2 2 2 3 3 2 3 3 3 3 4 4 4 4 4 4 3 2 1 2 3 3 3 3 2 2 2 2
2 1 1 1 2 2 2 2 2 2 2 1 2 3 2 1 1 1 2 2 1 2 2 3 3 3 4 4 4 4 4 4 3 3 2 1 1 2 2 2 2 2 2 2
2 2 1 1 1 2 1 1 2 2 2 3 2 2 3 1 1 1 1 1 1 1 1 2 3 3 4 4 4 4 4 3 3 3 2 2 1 1 1 1 1 1 2 2
2 3 2 2 1 0 1 1 2 2 2 2 2 3 2 3 3 2 2 1 1 1 1 2 2 3 4 4 4 4 3 3 3 4 3 2 2 1 0 0 0 1 1 2
2 2 2 1 1 1 1 1 1 2 3 3 2 1 1 3 3 4 3 2 2 2 1 1 2 3 4 4 4 5 5 5 4 4 3 3 3 2 1 1 1 1 2 3
1 2 3 3 1 1 2 2 2 3 2 3 3 2 3 2 2 4 4 3 3 2 1 0 1 2 3 4 4 4 4 5 4 4 4 3 3 2 2 1 1 1 2 2
1 2 3 1 2 2 3 3 3 2 2 3 3 2 3 1 2 3 4 4 3 2 2 1 1 1 2 3 3 3 4 4 4 4 3 3 4 3 3 2 2 2 2 2
1 3 4 4 3 3 5 5 5 5 4 5 6 6 4 4 4 4 4 4 4 4 3 2 1 0 1 1 2 2 3 3 3 3 3 3 3 3 3 3 3 3 2 2
2 4 5 8 9 7 9 9 9 9 8 7 7 8 9 7 6 6 5 5 5 5 5 4 3 2 1 1 1 2 2 3 2 2 2 3 3 3 3 3 3 3 3 2
2 3 4 6 5 7 9 11 11 12 11 12 12 12 8 6 5 6 6 6 7 7 7 6 5 4 3 2 1 1 1 1 2 2 2 2 3 2 2 2 2 2 3 3
2 2 3 4 5 7 8 8 10 7 7 8 9 7 4 5 7 7 7 7 8 7 7 7 6 5 4 3 3 2 1 1 1 1 2 2 2 2 2 2 2 3 3 3
4 2 3 4 5 5 1 1 5 7 7 9 8 7 6 7 7 7 7 8 8 7 7 7 6 5 4 3 3 2 1 1 0 1 1 2 2 2 2 2 3 3 3 3
7 4 3 3 5 8 4 2 3 5 6 7 9 8 6 3 4 6 6 7 8 7 7 6 6 5 4 4 3 2 2 1 1 1 2 2 2 2 2 2 3 3 3 3
5 5 4 3 4 5 1 2 2 3 4 3 6 6 4 3 4 4 3 5 6 6 6 5 5 5 5 4 3 3 2 2 2 2 2 2 2 1 1 2 3 2 2 3
4 5 7 7 6 7 3 3 4 3 2 1 5 6 7 7 6 3 3 5 5 5 6 5 6 5 5 4 4 4 3 3 3 2 2 2 2 1 2 2 2 2 2 3
7 6 7 6 7 7 5 7 6 4 1 3 4 6 8 8 5 4 5 5 6 5 6 6 6 5 5 5 5 5 5 4 3 2 2 1 1 1 1 2 2 2 2 2
9 8 5 8 8 2 7 8 5 3 4 4 5 6 7 7 6 5 5 5 6 6 6 6 6 5 5 5 6 6 5 3 3 3 2 1 1 1 1 1 1 2 2 2
6 6 6 8 11 10 10 11 10 8 8 7 6 6 7 8 8 7 6 5 6 6 5 5 6 6 5 6 6 6 4 4 4 3 2 1 1 1 1 1 1 2 2 2
8 7 7 11 12 10 10 11 11 9 8 8 7 7 8 8 8 7 7 6 6 5 5 6 6 6 6 5 5 5 4 4 4 3 2 2 2 2 2 2 2 2 2 2
12 12 11 12 10 8 8 6 7 7 8 8 8 8 8 8 8 7 7 6 6 6 5 6 6 6 6 5 5 5 4 5 4 4 3 2 2 2 2 2 2 2 3 3
Wind_Direction
150 175 198 207 220 251 237 241 256 265 263 265 260 276 287 295 294 287 284 281 295 301 308 319 317 310 313 317 280 256 239 231 201 185 186 190 192 185 180 177 171 188 199 199
154 211 235 213 208 222 236 246 257 278 272 263 275 283 283 290 286 281 275 279 293 310 327 334 342 346 344 342 313 271 237 230 201 196 196 194 185 178 167 174 171 189 197 199
191 256 200 203 210 222 240 240 255 275 295 254 280 277 269 282 280 288 289 275 280 290 304 319 343 356 357 351 337 308 294 239 194 175 160 153 161 179 190 189 192 200 200 204
258 244 198 213 227 236 254 252 255 263 271 266 276 282 273 289 276 285 295 288 299 305 302 330 357 9 2 351 354 352 23 58 141 153 158 173 185 194 206 198 196 198 202 210
270 206 217 234 258 243 260 278 258 252 251 273 254 262 278 299 277 289 320 333 334 341 327 351 11 17 13 10 16 15 36 60 89 130 156 178 181 187 191 182 193 205 207 212
285 264 262 277 283 236 259 253 234 230 234 251 252 247 278 285 282 289 326 339 345 358 14 23 18 16 19 20 25 27 47 51 62 104 148 169 165 173 176 180 193 207 217 219
339 202 228 256 282 208 239 243 225 211 221 246 207 248 272 309 305 288 308 325 335 7 32 29 20 17 21 27 29 33 47 50 47 63 98 165 174 178 179 184 200 208 218 232
324 297 337 300 284 255 232 267 289 288 277 289 233 255 291 331 328 339 331 325 9 37 34 30 25 25 30 28 25 28 38 42 38 37 35 69 140 164 174 186 205 222 234 247
322 310 339 308 296 271 227 225 301 287 283 267 248 268 272 260 292 338 339 351 27 37 32 29 30 25 31 31 27 25 34 40 39 36 33 40 61 116 143 172 213 242 251 259
302 285 295 302 223 153 308 251 219 242 270 277 275 255 251 239 246 259 276 256 260 309 353 24 29 24 28 30 27 28 32 37 34 32 29 30 28 42 114 178 227 276 284 269
275 275 288 254 244 249 190 208 247 248 281 282 282 269 166 214 227 233 243 244 241 225 227 15 25 23 29 30 29 28 31 35 29 29 30 33 30 38 56 42 345 305 293 287
264 271 280 269 295 283 254 249 239 264 259 256 273 277 109 194 228 229 234 234 237 217 188 83 41 31 30 28 25 27 28 28 19 20 25 32 32 35 38 12 332 315 311 309
244 261 297 227 193 199 240 233 230 247 257 234 242 246 125 210 257 243 231 226 218 209 188 149 84 32 24 19 18 24 27 22 16 19 27 29 22 18 10 351 334 330 327 319
254 254 254 279 301 275 262 248 225 216 234 248 245 261 259 259 262 250 231 223 215 211 207 198 193 219 351 0 8 18 22 19 17 21 25 23 12 2 355 351 350 344 330 315
281 265 261 270 272 263 261 258 238 229 241 250 264 256 259 263 258 244 226 215 216 218 218 216 221 227 247 299 341 1 4 7 12 16 13 4 359 0 2 1 357 351 345 331
311 276 285 278 256 262 265 255 243 240 244 250 264 268 266 257 246 232 216 209 216 218 221 222 224 227 233 247 275 302 325 350 3 1 357 352 353 360 1 355 351 350 353 349
275 280 289 279 301 289 265 245 223 226 225 229 243 258 254 244 241 233 219 213 219 221 220 220 222 223 223 226 237 252 271 309 348 350 348 346 343 348 349 347 345 348 354 354
234 248 264 290 304 256 274 102 218 230 243 233 253 265 249 254 261 247 227 224 226 223 221 220 221 219 218 221 227 233 238 246 304 336 332 333 335 341 345 349 347 349 352 352
218 228 246 262 281 279 270 211 206 225 260 235 244 257 261 274 269 239 225 229 230 224 219 218 215 215 211 211 212 209 214 231 282 303 307 314 318 322 334 344 344 347 352 351
193 219 236 236 258 260 295 150 181 219 262 229 226 236 221 191 236 239 203 220 223 219 213 211 203 202 205 204 200 202 216 227 250 270 280 292 294 298 315 329 336 343 346 342
193 206 220 230 246 267 254 156 164 219 303 255 222 222 208 214 245 271 211 219 215 208 203 200 198 200 204 196 191 205 219 234 251 259 269 284 292 303 316 330 339 344 347 343
203 202 208 206 225 250 164 160 203 255 329 242 235 227 224 239 261 250 223 215 204 198 196 196 198 203 202 194 196 210 222 232 234 231 242 271 298 317 322 332 339 338 340 341
218 215 216 214 230 270 186 213 239 255 253 250 242 242 235 244 249 243 230 218 209 204 200 199 202 204 203 200 203 216 225 225 222 221 229 253 289 308 308 303 314 320 327 331
231 215 229 251 257 256 248 247 251 246 251 259 252 248 236 240 243 238 231 222 215 210 204 200 202 208 211 206 208 219 219 213 214 220 229 239 256 281 295 295 288 290 302 313
234 196 223 248 261 271 252 236 243 247 250 257 256 248 242 242 242 234 228 224 219 213 207 202 205 212 215 211 214 214 209 205 212 219 225 233 242 259 269 274 280 276 273 292
221 215 221 243 242 235 254 244 234 240 248 250 253 252 241 234 237 232 230 224 218 214 208 207 208 212 214 212 217 213 208 206 210 214 220 227 234 245 257 266 281 289 286 306
Height
1495 1495 1493 1492 1493 1492 1491 1491 1489 1487 1489 1489 1486 1484 1481 1480 1479 1477 1476 1476 1475 1475 1474 1472 1471 1471 1471 1470 1471 1471 1472 1473 1474 1476 1478 1480 1482 1484 1486 1489 1491 1494 1496 1498
1495 1494 1493 1494 1495 1494 1493 1492 1488 1487 1488 1488 1484 1481 1478 1478 1477 1476 1474 1474 1473 1472 1471 1470 1469 1468 1467 1467 1467 1468 1469 1470 1471 1473 1475 1477 1479 1481 1483 1485 1487 1490 1492 1494
1492 1493 1493 1493 1493 1493 1491 1490 1488 1488 1487 1486 1484 1476 1474 1474 1474 1474 1473 1472 1472 1471 1470 1468 1467 1466 1466 1465 1465 1466 1466 1467 1469 1471 1472 1474 1476 1478 1481 1483 1484 1487 1488 1490
1493 1494 1494 1493 1491 1491 1488 1488 1488 1488 1487 1482 1484 1475 1470 1471 1471 1471 1471 1470 1470 1469 1469 1467 1466 1465 1464 1464 1464 1464 1464 1465 1466 1468 1470 1471 1473 1475 1477 1479 1481 1483 1485 1487
1493 1494 1493 1492 1491 1491 1489 1489 1488 1487 1487 1485 1481 1479 1469 1470 1469 1469 1469 1469 1468 1468 1467 1466 1465 1464 1464 1463 1462 1462 1463 1464 1464 1466 1467 1469 1471 1473 1475 1476 1478 1479 1481 1483
1494 1495 1494 1493 1491 1491 1490 1489 1487 1486 1484 1481 1478 1477 1468 1467 1468 1468 1469 1468 1467 1467 1466 1465 1465 1464 1463 1462 1461 1461 1461 1462 1463 1464 1466 1467 1469 1470 1472 1473 1475 1476 1478 1479
1492 1493 1493 1493 1490 1490 1490 1488 1482 1479 1477 1472 1478 1476 1469 1468 1469 1469 1469 1468 1467 1466 1465 1465 1464 1463 1462 1461 1460 1460 1460 1461 1462 1463 1464 1466 1467 1468 1469 1470 1472 1473 1474 1475
1493 1491 1492 1492 1491 1489 1488 1487 1482 1475 1470 1469 1475 1471 1467 1470 1470 1470 1470 1468 1467 1466 1466 1465 1464 1463 1462 1461 1460 1460 1460 1460 1461 1462 1463 1463 1464 1465 1466 1467 1468 1469 1470 1471
1493 1492 1492 1492 1492 1490 1487 1486 1487 1483 1480 1473 1466 1468 1467 1469 1469 1470 1469 1469 1468 1467 1467 1466 1465 1464 1462 1461 1460 1460 1460 1461 1461 1462 1462 1461 1462 1463 1464 1464 1465 1466 1467 1468
1496 1494 1491 1492 1491 1491 1490 1488 1487 1484 1476 1467 1463 1464 1463 1466 1468 1469 1469 1469 1468 1468 1467 1466 1465 1464 1463 1462 1461 1461 1461 1461 1461 1461 1461 1460 1460 1460 1461 1462 1463 1464 1464 1465
1497 1495 1491 1490 1488 1487 1490 1489 1487 1484 1480 1470 1463 1461 1462 1465 1467 1468 1469 1469 1469 1468 1468 1467 1466 1465 1464 1463 1462 1462 1461 1461 1460 1460 1459 1459 1459 1459 1459 1460 1460 1461 1461 1461
1497 1495 1490 1488 1489 1490 1488 1487 1486 1483 1480 1478 1469 1465 1465 1467 1468 1468 1468 1469 1469 1468 1468 1467 1466 1465 1465 1464 1463 1462 1461 1461 1460 1459 1459 1458 1458 1458 1458 1458 1458 1458 1458 1458
1497 1495 1489 1483 1488 1490 1487 1486 1486 1486 1483 1478 1470 1464 1466 1467 1468 1468 1468 1468 1469 1468 1468 1467 1467 1466 1465 1464 1463 1463 1462 1461 1460 1459 1458 1457 1457 1457 1457 1457 1456 1456 1455 1455
1497 1493 1491 1484 1480 1483 1484 1483 1484 1485 1481 1473 1467 1461 1463 1464 1466 1466 1467 1467 1468 1468 1467 1467 1466 1466 1465 1465 1464 1463 1462 1461 1460 1459 1458 1457 1457 1456 1456 1455 1454 1453 1452 1452
1496 1492 1489 1486 1485 1485 1483 1481 1481 1481 1476 1473 1463 1463 1461 1462 1464 1465 1465 1466 1466 1466 1466 1466 1465 1465 1465 1464 1464 1463 1462 1461 1460 1459 1458 1457 1456 1455 1454 1453 1452 1451 1450 1449
1496 1492 1490 1485 1483 1483 1481 1476 1475 1475 1473 1470 1466 1463 1459 1462 1463 1463 1463 1463 1463 1464 1464 1464 1464 1464 1463 1463 1463 1462 1461 1460 1459 1459 1458 1457 1455 1454 1453 1451 1450 1449 1447 1446
1495 1493 1490 1480 1481 1479 1470 1465 1468 1467 1466 1465 1463 1459 1459 1460 1460 1460 1460 1461 1460 1461 1461 1462 1462 1462 1462 1462 1461 1461 1460 1460 1459 1458 1457 1455 1454 1453 1451 1450 1448 1447 1445 1444
1495 1492 1490 1484 1480 1475 1461 1465 1465 1464 1462 1462 1460 1458 1458 1458 1458 1458 1458 1458 1458 1459 1459 1459 1460 1460 1460 1460 1460 1460 1459 1458 1457 1457 1456 1454 1453 1451 1450 1449 1447 1446 1444 1443
1494 1491 1488 1485 1476 1463 1459 1463 1464 1463 1458 1457 1457 1456 1457 1457 1456 1455 1454 1455 1456 1456 1457 1457 1457 1458 1458 1458 1458 1458 1457 1457 1456 1455 1454 1453 1452 1450 1449 1447 1446 1444 1443 1441
1492 1491 1488 1484 1478 1465 1455 1460 1462 1463 1454 1453 1454 1454 1455 1456 1453 1450 1451 1452 1453 1453 1454 1454 1455 1455 1456 1456 1456 1456 1455 1454 1454 1453 1452 1451 1450 1449 1447 1446 1444 1443 1441 1439
1486 1486 1484 1480 1475 1458 1456 1460 1462 1459 1449 1451 1451 1451 1452 1452 1450 1450 1449 1449 1450 1450 1451 1452 1452 1453 1453 1454 1454 1453 1453 1452 1452 1451 1450 1449 1448 1447 1446 1444 1443 1441 1439 1438
1476 1475 1475 1473 1471 1458 1455 1457 1456 1450 1449 1449 1448 1449 1449 1448 1447 1446 1446 1446 1447 1447 1448 1449 1449 1450 1450 1451 1451 1450 1450 1450 1450 1449 1448 1447 1446 1445 1444 1443 1441 1440 1438 1436
1470 1466 1462 1461 1453 1449 1450 1449 1448 1447 1447 1446 1446 1445 1445 1444 1444 1443 1443 1443 1444 1444 1445 1446 1446 1447 1447 1448 1448 1448 1448 1447 1447 1446 1446 1445 1444 1443 1442 1441 1439 1438 1436 1434
1463 1464 1462 1457 1447 1446 1446 1445 1444 1444 1443 1443 1442 1442 1442 1441 1440 1440 1440 1440 1441 1441 1442 1442 1443 1443 1444 1444 1444 1444 1444 1444 1444 1443 1443 1442 1442 1441 1440 1439 1437 1436 1434 1432
1455 1458 1455 1449 1442 1442 1439 1439 1439 1439 1439 1439 1438 1438 1438 1437 1437 1437 1437 1437 1437 1438 1438 1439 1439 1440 1440 1441 1441 1441 1441 1441 1440 1440 1440 1439 1439 1438 1437 1436 1435 1433 1432 1431
1447 1446 1444 1436 1434 1435 1433 1433 1434 1434 1434 1435 1434 1434 1433 1433 1433 1433 1433 1433 1434 1435 1435 1435 1436 1436 1437 1437 1437 1437 1437 1437 1437 1437 1436 1436 1435 1434 1434 1433 1432 1431 1430 1428